Location: Göttingen
(51.5413°N, 9.9158°E)
Time: 05:11:31
(UTC+02:00)

Envisat - Pass Details

Date: 27 January 2022
Orbit: 764 x 765 km, 98.2° (Epoch: 28 May)

Event Time Altitude Azimuth Distance (km) Brightness Sun altitude
Rises 06:19:45 0° 9° (N) 3,244 6.3 -16.4°
Reaches altitude 10° 06:22:12 10° 1° (N) 2,313 5.4 -16.0°
Maximum altitude 06:26:51 37° 296° (WNW) 1,176 3.5 -15.3°
Drops below altitude 10° 06:31:29 10° 230° (SW) 2,299 5.1 -14.6°
Sets 06:33:54 0° 222° (SW) 3,221 5.9 -14.2°
